www.pogodaiklimat.ru

Погода и климат >> Архив погоды >> Россия >> Приморский край >> Сосуново


ПОГОДА в Сосуново

  • Прогноз погоды в Сосуново
  • Монитор погоды в Сосуново

АРХИВ ПОГОДЫ в Сосуново

Время (UTC), дата Ветер
(напр.,м/с)
 
Видим.   Явления Облачность Т
(С)
Тd
(С)
f
(%)
Тe
(С)
Тes
(С)
Комфортность P
(гПа)
Po
(гПа)
Тmin
(С)
Tmax
(С)
R
(мм)
R24
(мм)
S
(см)
12 17.01 ЮЗ 13-20
{22}
20 км 8/0
[As op]
-17.0 -31.9 26 -31 -31 опасность
обморожения
999.9 999.4
15 17.01 ЮЗ 12-20
{20}
20 км 10/0
[As op Cs]
-15.5 -28.4 32 -29 -29 1002.2 1001.8
18 17.01 ЮЗ 11-19
{20}
20 км 4/0
[As op]
-14.3 -27.1 33 -27 -27 1005.0 1004.6
21 17.01 СЗ 7-13
{23}
20 км 10/0
[Cs]
-13.9 -26.7 33 -24 -24 1006.8 1006.4 -19.3 2
00 18.01 ЮЗ 12-18
{21}
20 км 8/0
[Cc]
-13.1 -25.8 34 -25 -25 1007.3 1006.9
03 18.01 СЗ 6-10
{26}
20 км 8/0
[Cs]
-9.9 -25.2 27 -18 -17 1009.8 1009.4
06 18.01 З 6-11
{14}
20 км 10/10 1000 м
[Sc]
-9.2 -24.8 27 -17 -17 1010.9 1010.5
09 18.01 З 9-16
{17}
20 км ясно -9.8 -25.4 27 -20 -20 1012.3 1011.8 -8.2
12 18.01 ЮЗ 9-12
{17}
20 км ясно -11.3 -26.3 28 -22 -22 1014.4 1014.0
15 18.01 ЮЗ 5
{13}
20 км ясно -11.9 -26.8 28 -20 -20 1015.8 1015.3
18 18.01 СЗ 3
{11}
20 км ясно -16.5 -25.3 46 -23 -23 1015.2 1014.8
21 18.01 Ю 1 20 км ясно -14.5 -23.8 45 -17 -17 1014.2 1013.8 -16.5 2
00 19.01 Ю 2 20 км ясно -9.0 -24.2 28 -13 -12 1015.1 1014.6 -16.9
03 19.01 З 3
{10}
20 км ясно -5.1 -25.1 19 -10 -6 1015.1 1014.6
06 19.01 СЗ 4 20 км ясно -3.9 -22.8 21 -9 -8 1014.2 1013.8
09 19.01 З 4 20 км ясно -9.1 -22.3 33 -16 -16 1015.3 1014.9 -3.8
12 19.01 З 6 20 км ясно -9.0 -24.1 28 -17 -17 1015.5 1015.0
15 19.01 ЮЗ 6 20 км ясно -14.4 -22.5 50 -24 -24 1014.4 1014.0
18 19.01 ЮЗ 6 20 км ясно -13.3 -21.2 51 -22 -22 1012.7 1012.3
21 19.01 ЮЗ 5 20 км 10/0
[As op]
-12.9 -20.4 53 -21 -21 1010.4 1010.0 -15.0 1
00 20.01 ЮЗ 2 50 км 8/0
[Cs]
-11.0 -18.5 54 -15 -14 1008.8 1008.4
03 20.01 СЗ 4 50 км 10/0
[As op Cs]
-5.6 -19.7 32 -11 -10 1005.6 1005.2
06 20.01 С 3 10 км слаб. снег 10/3 300 м
[Frnb As op]
-7.1 -11.7 70 -13 -13 1003.9 1003.4
09 20.01 СЗ 3
{10}
4000 м слаб. снег 10/4 300 м
[Frnb As op]
-8.9 -17.3 51 -14 -14 1003.4 1003.0 -5.6 0.2
12 20.01 З 5
{11}
50 км {снег} 10/0
[As op]
-10.2 -22.3 36 -18 -18 1003.2 1002.8
15 20.01 ЮЗ 8-14
{15}
50 км 10/10 600 м
[Sc]
-12.1 -25.3 32 -22 -22 1004.1 1003.7
18 20.01 ЮЗ 7-12
{16}
50 км 10/3 600 м
[Sc Cs]
-13.8 -26.4 34 -24 -24 1004.4 1003.9
21 20.01 ЮЗ 8-11
{14}
50 км ясно -15.6 -26.9 37 -27 -27 1004.5 1004.1 -15.6 0.0 1
00 21.01 ЮЗ 9-15
{15}
20 км ясно -14.2 -27.3 32 -25 -25 1004.8 1004.3 -15.8
03 21.01 З 6-12
{15}
20 км ясно -10.1 -25.8 26 -18 -17 1003.6 1002.9
06 21.01 З 6-10
{13}
20 км ясно -9.2 -24.3 28 -17 -17 1003.5 1002.8
09 21.01 З 3
{10}
20 км ясно -11.5 -24.6 33 -17 -17 1004.2 1003.5 -8.6
12 21.01 ЮЗ 2
{11}
20 км 5/0
[Cs]
-12.6 -24.9 35 -17 -17 1004.8 1004.0
15 21.01 ЮЗ 1 20 км 8/0
[Cs]
-13.1 -25.2 35 -15 -15 1004.9 1004.1
18 21.01 ЮЗ 7-11
{13}
20 км ясно -12.8 -24.7 36 -22 -22 1004.8 1004.1
21 21.01 ЮЗ 6-10
{11}
20 км 3/0
[Ci fib]
-12.0 -24.9 33 -21 -21 1005.9 1005.2 -14.4
00 22.01 ЮЗ 5
{10}
50 км ясно -10.3 -24.6 30 -18 -17 1007.3 1006.6 -15.2
03 22.01 Ю 4 50 км ясно -4.6 -21.3 26 -10 -7 1006.6 1005.9
06 22.01 ЮЗ 5 50 км 3/0
[Ci fib]
-3.2 -24.9 17 -9 -8 1006.4 1005.8
09 22.01 ЮЗ 5 50 км 6/0
[Ci fib]
-6.5 -22.1 28 -13 -13 1007.9 1007.2 -2.9
12 22.01 З 5 50 км 6/0
[Ci fib]
-7.6 -20.3 35 -15 -15 1008.7 1008.0
15 22.01 З 4 50 км 8/0
[Ci fib]
-8.3 -17.8 46 -15 -15 1008.9 1008.2
18 22.01 Ю 6 50 км ясно -14.8 -19.2 69 -24 -24 1008.5 1007.7 -14.8
21 22.01 Ю 6 50 км ясно -14.8 -19.2 69 -24 -24 1008.5 1007.7 -14.8
00 23.01 ЮЗ 5 20 км 3/0
[Ci fib]
-11.9 -17.9 61 -20 -19 1008.5 1007.8 -15.0
03 23.01 СВ 5 20 км ясно -4.7 -13.1 52 -11 -9 1007.3 1006.6
06 23.01 С 8-12
{13}
10 км слаб. снег 10/0
[As op]
-5.1 -9.3 72 -14 -14 1007.1 1006.4
09 23.01 С 3
{12}
10 км слаб. снег 10/0
[As op]
-6.0 -10.7 69 -11 -11 1008.5 1007.8 -4.2 0.4
12 23.01 З 5 20 км {снег} 10/0
[As op]
-7.1 -15.3 52 -14 -14 1008.6 1007.9
15 23.01 З 6-12
{12}
20 км 10/0
[As op]
-8.0 -18.2 44 -16 -16 1009.3 1008.6
18 23.01 З 4-11
{13}
20 км 10/0
[As op]
-9.0 -20.3 39 -15 -15 1009.9 1009.2
21 23.01 З 5
{12}
20 км 10/0
[As op]
-9.6 -21.3 38 -17 -17 1011.8 1011.0 -9.6 0.0 3
00 24.01 ЮЗ 6
{11}
50 км 10/0
[Ci fib]
-9.3 -21.3 37 -17 -17 1013.1 1012.4 -10.6
03 24.01 З 5
{12}
50 км 3/0
[Ci fib]
-3.9 -19.3 29 -10 -8 1013.4 1012.7
06 24.01 З 4
{10}
50 км 5/0
[Ci fib]
-2.2 -18.0 29 -7 -7 1013.5 1012.8
09 24.01 З 5 50 км ясно -6.8 -18.3 39 -14 -14 1015.8 1015.0 -2.1

 

Местоположение метеостанции Сосуново (Приморский край, Россия): широта 46.55 долгота 138.30 высота над уровнем моря 4 м.

В архиве по умолчанию представлена погода в Сосуново за последнюю неделю. Архивные данные за месяц целиком и за предыдущие месяцы, начиная с января 2011 года, Вы можете получить, выбрав интересующий диапазон дат из раскрывающегося списка и нажав кнопку "Ввод!".


*Определитесь, кто Вы:
робот инопланетянин человек

Внимание! Время в таблицах - всемирное. Для получения местного времени необходимо прибавить поправку, которая равна 10 ч.

Смотрите также архив погоды в соседних городах и на ближайших метеорологических станциях:

Погода в Агзу (Приморский край, Россия) (117 км)
Погода в Сукпае (Хабаровский край, Россия) (142 км)
Погода в Малой Кеме (Приморский край, Россия) (158 км)
Погода в Гвасюгах (Хабаровский край, Россия) (208 км)
Погода в Тернее (Приморский край, Россия) (217 км)
Погода в Остров Монерон (Сахалинская область, Россия) (225 км)
Погода в Красном Яре (Приморский край, Россия) (230 км)
Погода в Глубинном (Приморский край, Россия) (237 км)
Погода в Бичевой (Хабаровский край, Россия) (245 км)
Погода в Тивяку (Хабаровский край, Россия) (248 км)

Пояснения к столбцам:

Ветер - указаны скорость ветра в м/с - средняя за 10 мин, порывы в срок и между сроками (в фигурных скобках) и направление, откуда дует ветер: С - северный, СВ - северо-восточный, В - восточный, ЮВ - юго-восточный, Ю - южный, ЮЗ - юго-западный, З - западный, СЗ - северо-западный.
Видимость - горизонтальная дальность видимости в метрах или километрах. При видимости от 1 до 10 км при отсутствии осадков обычно наблюдается дымка, при ухудшении видимости до 1 км и менее - туман. В сухую погоду видимость может ухудшаться дымом, пылью или мглою.
Явления - указаны атмосферные явления, наблюдавшиеся в срок или в последний час перед сроком; фигурными скобками обозначены явления, наблюдавшиеся между сроками (за 1-3 часа до срока); квадратными скобками обозначены град или гололедные отложения с указанием их диаметра в мм.
Облачность - указаны через наклонную черту общая и нижняя облачность в баллах и высота нижней границы облаков в метрах; квадратными скобками обозначены формы облаков: Ci - перистые, Cs - перисто-слоистые, Cc - перисто-кучевые, Ac - высококучевые, As - высокослоистые, Sc - слоисто-кучевые, Ns - слоисто-дождевые, Cu - кучевые, Cb - кучево-дождевые. Подробнее классификацию облаков см. в Атласе облаков (PDF).
T - Температура воздуха - температура, измеренная на высоте 2 м над землей.
Td - Температура точки росы - температура, при понижении до которой содержащийся в воздухе водяной пар достигнет насыщения.
f - Относительная влажность воздуха - влажноcть воздуха, измеренная на высоте 2 м над землей.
Te - Эффективная температура - температура, которую ощущает одетый по сезону человек в тени. Характеристика душности погоды. При расчете учитывается влияние влажности воздуха и скорости ветра на теплоощущения человека.
Tes - Эффективная температура на солнце - температура, которую ощущает человек, с поправкой на солнечный нагрев. Характеристика знойности погоды. Зависит от высоты солнца над горизонтом, облачности и скорости ветра. Ночью, в пасмурную погоду, а также при ветре 12 м/с и более поправка равна нулю.
P - Атмосферное давление - приведенное к уровню моря атмосферное давление.
Po - Атмосферное давление - измеренное на уровне метеостанции атмосферное давление.
Tmin - Минимальная температура - минимум температуры воздуха на высоте 2 м над землей.
Tmax - Максимальная температура - максимум температуры воздуха на высоте 2 м над землей.
R - Количество осадков - Количество выпавших осадков за период времени, мм. При наведении курсора мыши на число - период времени, за который выпало указанное количество осадков.
R24 - Количество осадков - Количество выпавших осадков за 24 часа, мм.
S - Снежный покров - Высота снежного покрова, см. При наведении курсора мыши на число - состояние снежного покрова и степень покрытия местности в баллах.